{"data":{"norad_id":54845,"epoch":"2026-09-20T22:34:52.473504Z","epoch_age_seconds":54586,"freshness":"FRESH","line1":"1 54845U 22177AB  26263.94088511  .00000950  00000+0  44055-4 0  9995","line2":"2 54845  43.0020 110.0445 0001028 261.8782  98.1953 15.27574192206823","mean_motion":15.27574192,"eccentricity":0.0001028,"inclination_deg":43.002,"raan_deg":110.0445,"arg_perigee_deg":261.8782,"mean_anomaly_deg":98.1953,"bstar":4.4055e-5,"rev_number":20682,"period_min":94.267107125884,"perigee_km":482.36115561767,"apogee_km":483.77181905467,"semimajor_km":6861.2034873362,"source":"CELESTRAK","updated_at":"2026-09-21T09:00:33.136960Z"}}